Location: Buisson
(44.2787°N, 4.9969°E)
Time: 21:12:56
(UTC+00:00)

N. Korean satellite - Pass Details

Date: 29 September 2021
Orbit: 450 x 495 km, 97.3° (Epoch: 25 October)

Event Time Altitude Azimuth Distance (km) Brightness Sun altitude
Rises 04:46:50 0° 15° (NNE) 2,542 10.5 -9.5°
Reaches altitude 10° 04:48:54 10° 20° (NNE) 1,665 9.6 -9.2°
Maximum altitude 04:52:27 59° 100° (E) 566 7.3 -8.5°
Drops below altitude 10° 04:56:01 10° 181° (S) 1,674 9.2 -7.9°
Sets 04:58:06 0° 185° (S) 2,555 10.1 -7.5°
